TimePST,TemperatureF,Dew PointF,Humidity,Sea Level PressureIn,VisibilityMPH,Wind Direction,Wind SpeedMPH,Gust SpeedMPH,PrecipitationIn,Events,Conditions,WindDirDegrees,DateUTC
12:51 AM,52.0,8.1,17,30.15,10.0,SW,4.6,-,N/A,,Clear,230,2013-02-23 08:51:00
1:51 AM,52.0,8.1,17,30.13,10.0,Calm,Calm,-,N/A,,Clear,0,2013-02-23 09:51:00
2:51 AM,50.0,16.0,26,30.12,10.0,WNW,6.9,-,N/A,,Clear,300,2013-02-23 10:51:00
4:51 AM,50.0,18.0,28,30.11,10.0,Calm,Calm,-,N/A,,Clear,0,2013-02-23 12:51:00
5:51 AM,53.1,12.0,20,30.09,10.0,Calm,Calm,-,N/A,,Clear,0,2013-02-23 13:51:00
6:51 AM,48.0,24.1,39,30.11,10.0,SSW,3.5,-,N/A,,Clear,210,2013-02-23 14:51:00
7:51 AM,52.0,26.1,37,30.10,10.0,Calm,Calm,-,N/A,,Clear,0,2013-02-23 15:51:00
8:51 AM,53.1,21.9,30,30.10,10.0,Calm,Calm,-,N/A,,Clear,0,2013-02-23 16:51:00
10:51 AM,55.0,37.0,51,30.10,10.0,Calm,Calm,-,N/A,,Clear,0,2013-02-23 18:51:00
11:51 AM,55.0,41.0,59,30.06,10.0,West,5.8,-,N/A,,Clear,270,2013-02-23 19:51:00
12:51 PM,55.9,43.0,62,30.03,10.0,WSW,5.8,-,N/A,,Clear,240,2013-02-23 20:51:00
1:51 PM,55.9,39.9,55,29.99,10.0,West,6.9,-,N/A,,Clear,270,2013-02-23 21:51:00
2:51 PM,54.0,41.0,62,29.98,10.0,West,10.4,-,N/A,,Clear,260,2013-02-23 22:51:00
3:52 PM,51.1,45.0,80,29.95,10.0,West,15.0,-,N/A,,Unknown,260,2013-02-23 23:52:00
4:16 PM,50.0,46.4,87,29.95,5.0,West,15.0,-,N/A,,Overcast,260,2013-02-24 00:16:00
4:27 PM,48.2,46.4,93,29.95,1.8,West,12.7,-,N/A,,Overcast,270,2013-02-24 00:27:00
4:43 PM,48.2,46.4,93,29.95,3.0,West,12.7,-,N/A,,Overcast,270,2013-02-24 00:43:00
4:51 PM,48.9,46.0,90,29.95,2.5,West,11.5,-,N/A,,Overcast,280,2013-02-24 00:51:00
4:59 PM,48.2,46.4,93,29.95,1.0,West,13.8,-,N/A,,Overcast,270,2013-02-24 00:59:00
5:07 PM,48.2,46.4,93,29.95,0.5,West,13.8,-,N/A,Fog,Fog,270,2013-02-24 01:07:00
5:32 PM,48.2,46.4,93,29.94,2.5,West,15.0,-,N/A,,Overcast,260,2013-02-24 01:32:00
5:39 PM,48.2,46.4,93,29.94,4.0,West,15.0,-,N/A,,Overcast,260,2013-02-24 01:39:00
5:51 PM,48.0,45.0,89,29.95,2.0,West,16.1,-,N/A,,Overcast,260,2013-02-24 01:51:00
6:17 PM,48.2,46.4,93,29.95,1.2,WSW,9.2,-,N/A,,Overcast,250,2013-02-24 02:17:00
6:23 PM,48.2,46.4,93,29.95,0.8,WSW,9.2,-,N/A,,Mist,250,2013-02-24 02:23:00
6:51 PM,46.9,46.0,97,29.96,0.2,West,4.6,-,N/A,Fog,Fog,270,2013-02-24 02:51:00
7:23 PM,46.4,44.6,93,29.95,0.5,West,9.2,-,N/A,Fog,Fog,270,2013-02-24 03:23:00
7:25 PM,46.4,44.6,93,29.95,1.0,West,8.1,-,N/A,,Mist,280,2013-02-24 03:25:00
7:27 PM,46.4,44.6,93,29.95,2.5,West,6.9,-,N/A,,Mostly Cloudy,270,2013-02-24 03:27:00
7:37 PM,46.4,46.4,100,29.96,0.5,West,5.8,-,N/A,Fog,Fog,280,2013-02-24 03:37:00
7:42 PM,46.4,44.6,93,29.95,1.2,WNW,6.9,-,N/A,,Scattered Clouds,290,2013-02-24 03:42:00
7:45 PM,46.4,44.6,93,29.95,4.0,WNW,6.9,-,N/A,,Scattered Clouds,300,2013-02-24 03:45:00
7:51 PM,46.9,45.0,93,29.96,10.0,WNW,6.9,-,N/A,,Partly Cloudy,300,2013-02-24 03:51:00
8:51 PM,46.9,44.1,90,29.97,9.0,NW,9.2,-,N/A,,Clear,320,2013-02-24 04:51:00
9:51 PM,48.0,43.0,83,29.99,9.0,NNW,9.2,-,N/A,,Clear,330,2013-02-24 05:51:00
10:51 PM,48.0,42.1,80,29.98,10.0,North,9.2,-,N/A,,Clear,360,2013-02-24 06:51:00
11:49 PM,48.2,46.4,93,29.99,3.0,NNE,6.9,-,N/A,,Scattered Clouds,30,2013-02-24 07:49:00
11:51 PM,48.0,46.0,93,29.99,2.5,NNE,6.9,-,N/A,,Mostly Cloudy,30,2013-02-24 07:51:00